[[{"header":{"parameterUnit":"m.s-1","parameterCategory":1,"la1":30.2991,"la2":30.254,"lo1":-89.0895,"lo2":-89.0444,"dy":0.0017,"dx":0.0017,"nx":28,"ny":28,"refTime":"2024-03-03T09:00:00:Z","depth":0,"parameterNumber":2,"parameterNumberName":"U-component_of_WINDS"},"data":[0,0,0,0,0,0,0,0,0,0,0,0,0,0,0,0,0,0,0,0,0,0,0,0,0,0,0,0,0,0,0,0,0,0,0,0,0,0,0,0,0,0,0,0,0,0,0,0,0,0,0,0,0,0,0,0,0,0,-6.894,-6.8943,0,-6.9194,-6.9197,-6.92,-6.9304,-6.9304,-6.9303,-6.9303,-6.955,-6.9557,-6.9564,0,0,0,0,0,0,0,0,0,0,0,0,0,-6.8535,-6.8542,-6.894,-6.8943,-6.8946,-6.9193,-6.9197,-6.92,-6.9304,-6.9304,-6.9303,-6.9303,-6.9548,-6.9556,-6.9564,0,0,0,0,0,0,0,0,0,0,0,0,0,-6.8741,-6.8544,-6.8939,-6.9028,-6.9039,-6.9193,-6.9197,-6.9201,-6.9305,-6.9304,-6.9303,-6.9302,-6.9545,-6.9555,-6.9566,-6.9646,0,0,-6.9598,-6.9602,0,0,0,0,0,0,0,0,-6.8729,-6.8756,-6.9012,-6.9022,-6.9035,-6.9217,-6.9145,-6.935,-6.9305,-6.9203,-6.9303,-6.9302,-6.9439,-6.9458,-6.9507,-6.9657,-6.9668,-6.9599,-6.9605,-6.961,-6.9613,0,0,0,0,0,0,0,-6.8715,-6.8746,-6.904,-6.9015,-6.9029,-6.9052,-6.9081,-6.9184,-6.9322,-6.9212,-6.922,-6.925,-6.9445,-6.9497,-6.9513,-6.9672,-6.9598,-6.9608,-6.9614,-6.9619,-6.9903,-6.9904,0,0,0,0,0,0,-6.8688,-6.8733,-6.9032,-6.9048,-6.8878,-6.906,-6.9092,-6.9159,-6.9321,-6.9345,-6.925,-6.9254,-6.9479,-6.9501,-6.9523,-6.9629,-6.961,-6.962,-6.9626,-6.9902,-6.9904,-6.9905,0,0,0,0,0,0,-6.8679,-6.8713,-6.9022,-6.8893,-6.8934,-6.9068,-6.9142,-6.9164,-6.9216,-6.935,-6.9374,-6.9278,-6.9479,-6.9508,-6.9616,-6.9639,-6.9624,-6.9634,-6.9901,-6.9902,-6.9904,-6.9841,0,0,0,0,0,0,-6.8667,-6.871,-6.8744,-6.8893,-6.8941,-6.9113,-6.9144,-6.917,-6.9236,-6.9243,-6.9383,-6.9405,-6.9481,-6.96,-6.9626,-6.9653,-6.9642,-6.9899,-6.9901,-6.9904,-6.9842,-6.9841,-6.984,0,0,0,0,0,-6.8652,-6.8712,-6.8745,-6.878,-6.8987,-6.9115,-6.9141,-6.9231,-6.9237,-6.9271,-6.9358,-6.9401,-6.9633,-6.961,-6.9641,-6.9671,-6.9898,-6.9901,-6.9903,-6.9842,-6.9841,-6.984,0,0,0,0,0,0,-6.8556,-6.8733,-6.8771,-6.8883,-6.8984,-6.9132,-6.9178,-6.9226,-6.9324,-6.9325,-6.9429,-6.9459,-6.9559,-6.9626,-6.9598,-6.9759,-6.9769,-6.9778,-6.9711,-6.9711,-6.971,-6.9691,-6.9651,0,0,0,0,0,-6.8549,-6.8643,-6.879,-6.8874,-6.8924,-6.9042,-6.9101,-6.9162,-6.9268,-6.931,-6.9404,-6.9503,-6.9599,-6.9659,-6.9753,-6.9853,-6.9884,-6.9889,-6.9888,-6.9886,-6.9892,-6.9951,-6.9955,-6.9914,-6.9914,-6.9914,0,0,-6.8533,-6.8642,-6.8693,-6.8858,-6.8943,-6.9035,-6.9077,-6.917,-6.9239,-6.9323,-6.9433,-6.9505,-6.9622,-6.9727,-6.9777,-6.9785,-6.9912,-6.989,-6.9888,-6.9895,-6.9955,-6.9958,-6.9962,-6.9916,-6.9915,-6.9915,0,0,-6.8552,-6.8644,-6.8725,-6.8811,-6.8942,-6.9021,-6.904,-6.9183,-6.9236,-6.9349,-6.9415,-6.9496,-6.9657,-6.9739,-6.9801,-6.9855,-6.9898,-6.9883,-6.9877,-6.9933,-6.9936,-6.994,-6.9959,-6.9965,-6.9889,-6.9889,-6.9888,0,-6.8515,-6.8659,-6.8759,-6.8852,-6.8922,-6.9009,-6.9091,-6.9168,-6.932,-6.9365,-6.9374,-6.9582,-6.9666,-6.9792,-6.9806,-6.9853,-6.9877,-6.9866,-6.9928,-6.9933,-6.9937,-6.9957,-6.9964,-6.9886,-6.9886,-6.9886,-6.9887,0,-6.8608,-6.8706,-6.8756,-6.8908,-6.8983,-6.9069,-6.918,-6.9244,-6.9299,-6.9376,-6.949,-6.9595,-6.9715,-6.9749,-6.9801,-6.9883,-6.9884,-6.9909,-6.9921,-6.9937,-6.9957,-6.9966,-6.9882,-6.9883,-6.9884,-6.9884,0,0,-6.8571,-6.8781,-6.8797,-6.8868,-6.902,-6.9096,-6.9186,-6.9308,-6.9361,-6.9463,-6.954,-6.9678,-6.9703,-6.9774,-6.9836,-6.9886,-6.9923,-6.9905,-6.991,-6.9905,-7.002,-7.0,-7.0007,-6.9954,-6.9955,-6.9957,-7.001,0,-6.861,-6.878,-6.8874,-6.9003,-6.9095,-6.918,-6.9259,-6.9358,-6.9434,-6.952,-6.9602,-6.9698,-6.9724,-6.9768,-6.9821,-6.9907,-6.9947,-6.9905,-7.0024,-7.0027,-6.9992,-7.0018,-6.9997,-7.0042,-7.0019,-7.002,-7.0021,0,-6.8679,-6.8786,-6.8926,-6.907,-6.9112,-6.9181,-6.9302,-6.9384,-6.9499,-6.955,-6.9632,-6.9695,-6.9791,-6.9797,-6.993,-6.9899,-6.9953,-7.0003,-7.0007,-7.0021,-7.0024,-7.0032,-7.0059,-7.0065,-7.0035,-7.0034,-7.0033,0,-6.8639,-6.8818,-6.8926,-6.8983,-6.9154,-6.9201,-6.9273,-6.9388,-6.9456,-6.9559,-6.9604,-6.9716,-6.9776,-6.986,-6.9951,-6.9947,-7.0076,-7.0088,-7.0119,-7.0117,-7.0141,-7.0138,-7.0176,-7.0177,-7.0176,-7.0176,-7.0176,0,-6.8673,-6.8755,-6.8911,-6.8976,-6.907,-6.9177,-6.9266,-6.9344,-6.9447,-6.9527,-6.9606,-6.9679,-6.9795,-6.9882,-6.9954,-7.0054,-7.008,-7.0123,-7.014,-7.0116,-7.011,-7.0152,-7.015,-7.0178,-7.0178,-7.0177,-7.0177,0,-6.8644,-6.8752,-6.8875,-6.9028,-6.9069,-6.9131,-6.9261,-6.9327,-6.9407,-6.9509,-6.9538,-6.9663,-6.977,-6.9871,-7.0011,-7.006,-7.016,-7.0183,-7.0122,-7.0132,-7.0157,-7.0153,-7.0223,-7.0238,-7.0227,-7.0227,-7.0227,0,-6.8659,-6.8725,-6.8887,-6.895,-6.9022,-6.912,-6.9191,-6.9298,-6.9368,-6.9507,-6.9555,-6.9669,-6.9766,-6.9933,-7.0034,-7.0143,-7.0169,-7.0186,-7.0185,-7.0159,-7.0169,-7.0164,-7.0171,-7.0183,-7.0183,-7.0183,-7.0183,0,-6.8674,-6.8725,-6.8827,-6.8948,-6.9032,-6.9131,-6.9232,-6.9278,-6.9403,-6.9478,-6.9591,-6.9667,-6.9814,-6.9925,-7.0047,-7.0118,-7.0171,-7.0183,-7.0196,-7.017,-7.0133,-7.0154,-7.0117,-7.018,-7.018,-7.018,-7.0181,-7.0181,-6.8668,-6.8732,-6.8857,-6.8968,-6.9057,-6.915,-6.9221,-6.9312,-6.941,-6.9541,-6.9597,-6.9711,-6.9826,-6.9995,-7.0066,-7.0156,-7.0167,-7.0185,-7.019,-7.0193,-7.0188,-7.0119,-7.0178,-7.0178,-7.0178,-7.0178,-7.0178,0,-6.8688,-6.8774,-6.8875,-6.9017,-6.9104,-6.9151,-6.9266,-6.9335,-6.9436,-6.954,-6.9636,-6.9766,-6.9875,-6.9987,-7.0102,-7.0152,-7.0179,-7.0178,-7.0175,-7.0191,-7.0171,-7.0148,-7.0155,-7.0155,-7.0155,-7.0155,-7.0155,-7.0155,-6.8709,-6.8819,-6.8885,-6.9039,-6.9124,-6.924,-6.9302,-6.9388,-6.9472,-6.9616,-6.9709,-6.9782,-6.9889,-7.0014,-7.0116,-7.0146,-7.0184,-7.0177,-7.0213,-7.0191,-7.0192,-7.0193,-7.0173,-7.0184,-7.0184,-7.0226,-7.0226,-7.0226]},{"header":{"parameterUnit":"m.s-1","parameterCategory":1,"la1":30.2991,"la2":30.254,"lo1":-89.0895,"lo2":-89.0444,"dy":0.0017,"dx":0.0017,"nx":28,"ny":28,"refTime":"2024-03-03T09:00:00:Z","depth":0,"parameterNumber":3,"parameterNumberName":"V-component_of_WINDS"},"data":[0,0,0,0,0,0,0,0,0,0,0,0,0,0,0,0,0,0,0,0,0,0,0,0,0,0,0,0,0,0,0,0,0,0,0,0,0,0,0,0,0,0,0,0,0,0,0,0,0,0,0,0,0,0,0,0,0,0,4.0952,4.0951,0,4.0915,4.0914,4.0914,4.0874,4.0873,4.0873,4.0872,4.083,4.083,4.0829,0,0,0,0,0,0,0,0,0,0,0,0,0,4.0987,4.0987,4.0952,4.0951,4.0951,4.0915,4.0914,4.0914,4.0874,4.0873,4.0873,4.0872,4.0831,4.083,4.0829,0,0,0,0,0,0,0,0,0,0,0,0,0,4.0963,4.0987,4.0952,4.0927,4.0924,4.0915,4.0914,4.0913,4.0874,4.0873,4.0873,4.0872,4.0831,4.083,4.0829,4.084,0,0,4.0826,4.0826,0,0,0,0,0,0,0,0,4.0964,4.0962,4.0931,4.0929,4.0926,4.0898,4.0911,4.0889,4.0874,4.0893,4.0872,4.0871,4.0853,4.085,4.0845,4.0838,4.0836,4.0826,4.0825,4.0825,4.0825,0,0,0,0,0,0,0,4.0966,4.0963,4.0937,4.0931,4.0927,4.0917,4.0913,4.0907,4.0878,4.0891,4.0889,4.0885,4.0852,4.0846,4.0844,4.0835,4.0826,4.0825,4.0825,4.0824,4.0837,4.0838,0,0,0,0,0,0,4.0972,4.0965,4.0938,4.0936,4.0944,4.0917,4.0912,4.0908,4.0878,4.0873,4.0886,4.0883,4.0848,4.0845,4.0842,4.0854,4.0825,4.0824,4.0824,4.0836,4.0837,4.0838,0,0,0,0,0,0,4.0973,4.097,4.094,4.0949,4.0945,4.0917,4.0913,4.0907,4.0902,4.0874,4.0868,4.0885,4.0847,4.0843,4.0841,4.0852,4.0824,4.0823,4.0835,4.0836,4.0837,4.0876,0,0,0,0,0,0,4.0974,4.097,4.0974,4.095,4.0945,4.094,4.0913,4.0907,4.0901,4.0897,4.0872,4.0867,4.0846,4.0843,4.084,4.085,4.0822,4.0834,4.0835,4.0837,4.0874,4.0879,4.0883,0,0,0,0,0,4.0975,4.0986,4.0975,4.0972,4.0949,4.094,4.0937,4.0914,4.0902,4.0905,4.0888,4.0868,4.0851,4.0843,4.084,4.0849,4.0833,4.0835,4.0837,4.0872,4.0878,4.0883,0,0,0,0,0,0,4.101,4.0982,4.0969,4.0972,4.0959,4.0934,4.0937,4.0921,4.091,4.0907,4.0879,4.0873,4.0875,4.0862,4.0853,4.0859,4.0839,4.0841,4.0867,4.0872,4.0877,4.0879,4.0822,0,0,0,0,0,4.1018,4.1014,4.099,4.0994,4.0989,4.0965,4.096,4.0944,4.0929,4.0923,4.0905,4.089,4.0882,4.0876,4.0867,4.0873,4.0867,4.0878,4.0882,4.0886,4.0887,4.089,4.0895,4.0844,4.0844,4.0844,0,0,4.1034,4.1019,4.1017,4.1001,4.0989,4.0986,4.096,4.0957,4.0954,4.0922,4.0919,4.0906,4.0888,4.089,4.089,4.0879,4.09,4.0888,4.0892,4.089,4.0893,4.0897,4.0902,4.0846,4.0845,4.0845,0,0,4.1062,4.105,4.1053,4.1043,4.1026,4.101,4.1011,4.0989,4.0979,4.0977,4.0953,4.0949,4.0935,4.0924,4.0916,4.0943,4.0924,4.0941,4.0964,4.0967,4.0971,4.0974,4.0984,4.0988,4.0943,4.0943,4.0943,0,4.1084,4.1078,4.1056,4.1055,4.1049,4.1023,4.1026,4.1016,4.0997,4.0993,4.0982,4.0966,4.0951,4.0951,4.0958,4.0953,4.0953,4.0943,4.0973,4.0976,4.0978,4.0988,4.0991,4.0945,4.0945,4.0944,4.0944,0,4.1106,4.1103,4.1107,4.1091,4.1086,4.1087,4.1065,4.1062,4.1048,4.1033,4.1032,4.1015,4.1002,4.1001,4.0986,4.0999,4.0993,4.0978,4.0957,4.0986,4.0994,4.0997,4.0948,4.0947,4.0946,4.0946,0,0,4.1151,4.1126,4.1128,4.1121,4.1102,4.1099,4.11,4.1089,4.1087,4.1076,4.1075,4.1066,4.1052,4.1044,4.1028,4.1031,4.1054,4.1015,4.1014,4.1023,4.1069,4.108,4.1084,4.1043,4.1044,4.1044,4.107,0,4.1175,4.1175,4.1157,4.1162,4.1159,4.1136,4.1136,4.1125,4.1112,4.1107,4.1093,4.1087,4.107,4.1065,4.1067,4.1051,4.1063,4.1049,4.1042,4.1042,4.1046,4.1088,4.11,4.1125,4.1073,4.1074,4.1074,0,4.1202,4.1194,4.12,4.1183,4.1181,4.1182,4.1172,4.1168,4.1155,4.1146,4.1138,4.1121,4.112,4.1102,4.1101,4.1092,4.1089,4.1081,4.1081,4.1078,4.1059,4.1086,4.1133,4.1136,4.1079,4.1079,4.1078,0,4.1235,4.1226,4.1228,4.1223,4.1203,4.1205,4.1196,4.1183,4.1178,4.117,4.1167,4.1158,4.1153,4.1146,4.1127,4.1116,4.1128,4.1109,4.112,4.1121,4.1122,4.1122,4.1168,4.1122,4.1122,4.1122,4.1122,0,4.1263,4.1267,4.1243,4.1244,4.1248,4.1228,4.1233,4.1222,4.1211,4.1209,4.1189,4.1188,4.1163,4.116,4.1145,4.1147,4.1144,4.1137,4.1132,4.1138,4.1139,4.1134,4.1131,4.1123,4.1122,4.1122,4.1122,0,4.1299,4.1283,4.1284,4.1267,4.1262,4.1266,4.1251,4.1251,4.1239,4.1238,4.1236,4.1216,4.1211,4.1193,4.1182,4.1173,4.1179,4.1171,4.1184,4.1181,4.1193,4.1193,4.1237,4.1242,4.1193,4.1194,4.1194,0,4.1317,4.132,4.1304,4.1302,4.1296,4.1293,4.1289,4.127,4.1267,4.1254,4.1257,4.1251,4.1244,4.1238,4.1222,4.1215,4.1206,4.1223,4.1205,4.1211,4.1207,4.1206,4.1207,4.1226,4.1227,4.1227,4.1228,0,4.1352,4.1345,4.134,4.1334,4.1331,4.1325,4.1317,4.1317,4.1296,4.1294,4.129,4.1285,4.1277,4.1271,4.1262,4.1253,4.1237,4.1234,4.1236,4.1241,4.1248,4.1245,4.1193,4.1232,4.1232,4.1231,4.1231,4.1231,4.1379,4.1381,4.1371,4.1368,4.1361,4.1355,4.1355,4.1344,4.134,4.1333,4.1322,4.1319,4.1308,4.1295,4.1287,4.1285,4.1276,4.1279,4.128,4.1281,4.1284,4.125,4.1283,4.1283,4.1283,4.1283,4.1283,0,4.1413,4.1406,4.1403,4.1394,4.1392,4.138,4.1371,4.137,4.1369,4.136,4.1356,4.1352,4.1347,4.1332,4.1326,4.1327,4.132,4.1326,4.1325,4.1324,4.1292,4.1291,4.1332,4.1332,4.1332,4.1332,4.1332,4.1332,4.143,4.1433,4.1425,4.1425,4.1418,4.1416,4.1413,4.1408,4.1401,4.1398,4.1395,4.1386,4.1375,4.1368,4.1364,4.136,4.1358,4.1367,4.136,4.133,4.1326,4.1321,4.132,4.1367,4.1367,4.1392,4.1392,4.1393]}]]